Regional Weather Roundup
Issued by NWS

Home | Current Version | Previous Version | Text Only | Print | Product List | Glossary On
Versions: 1 2 3 4 5 6 7 8 9 10 11 12 13 14 15 16 17 18 19 20 21 22 23 24 25 26 27 28 29 30 31 32 33 34 35 36 37 38 39 40 41 42 43 44 45 46 47 48 49 50
000
ASUS45 KBOI 140510
RWRID
WEATHER ROUNDUP FOR IDAHO
NATIONAL WEATHER SERVICE BOISE ID
1100 PM MDT SUN JUL 13 2014

NOTE: "FAIR" INDICATES FEW OR NO CLOUDS BELOW 12000 FEET
WITH NO SIGNIFICANT WEATHER AND/OR OBSTRUCTIONS TO VISIBILITY

IDZ012-014-140600-
SOUTHWEST IDAHO


CITY           SKY/WX    TMP DP  RH WIND       PRES   REMARKS
BOISE          CLOUDY    92  41  17 E8        29.93S
CALDWELL       CLOUDY    84  55  37 NW8       29.95R
MOUNTAIN HOME  PTCLDY    85  40  20 NE5       29.95S
$$

IDZ016-017-140600-
SOUTHCENTRAL IDAHO


CITY           SKY/WX    TMP DP  RH WIND       PRES   REMARKS
BURLEY         CLEAR     73  57  57 SW3       30.08R
JEROME         CLEAR     82  49  31 E9        30.07S
TWIN FALLS     CLEAR     78  41  26 S10       30.07S
$$

IDZ019>023-140600-
SOUTHEAST IDAHO


CITY           SKY/WX    TMP DP  RH WIND       PRES   REMARKS
IDAHO FALLS    CLEAR     64  57  78 N5        30.18R
POCATELLO      CLEAR     75  44  33 E9        30.13S
REXBURG        PTCLDY    70  52  52 N3        30.20R
$$

IDZ006-010-011-018-031-032-140600-
CENTRAL IDAHO MOUNTAINS


CITY           SKY/WX    TMP DP  RH WIND       PRES   REMARKS
MCCALL         CLOUDY    79  39  23 N9        30.18R
HAILEY         PTCLDY    70  52  52 NW9       30.21R
STANLEY          N/A     61  40  45 S3        30.32R
SALMON         PTCLDY    77  39  25 S3        30.13R
CHALLIS        MOCLDY    77  36  22 W8        30.20R
$$

IDZ002-004-006-007-026-140600-
NORTHERN IDAHO


CITY           SKY/WX    TMP DP  RH WIND       PRES   REMARKS
LEWISTON       CLOUDY    88  47  24 S6        29.96F
LOWELL           N/A     70  60  70 CALM      30.03R
COEUR D`ALENE  CLOUDY    77  61  57 E6        30.03S
MULLAN PASS    CLOUDY    72  41  32 SE3       30.33S
$$


USA.gov is the U.S. government's official web portal to all federal, state and local government web resources and services.